BHSTST MYNN-MYNN

Flight info

Callsign BHSTST
Flight time N/A
Altitude 10000
Route DIRECT
Aircraft B737/M-SDGIRWYZ/S

Departure

Time 2026-05-03 23:01
Airport Lynden Pindling International Airport (MYNN)

Arrival

Time N/A
Airport Lynden Pindling International Airport (MYNN)
Time Latitude Longitude Altitude Speed Heading
2026-05-03 22:52 25.04677 -77.46504 23 ft 0 kts 314°
2026-05-03 22:58 25.04678 -77.46504 23 ft 0 kts 314°
2026-05-03 22:58 25.04696 -77.46536 23 ft 7 kts 264°
2026-05-03 22:58 25.04681 -77.46614 23 ft 16 kts 310°
2026-05-03 22:59 25.04738 -77.46705 23 ft 13 kts 243°
2026-05-03 22:59 25.04740 -77.46815 23 ft 21 kts 314°
2026-05-03 22:59 25.04868 -77.46956 23 ft 30 kts 315°
2026-05-03 22:59 25.05028 -77.47134 23 ft 33 kts 314°
2026-05-03 23:00 25.05193 -77.47316 23 ft 28 kts 313°
2026-05-03 23:00 25.05205 -77.47498 23 ft 16 kts 250°
2026-05-03 23:00 25.05151 -77.47527 23 ft 9 kts 146°
2026-05-03 23:00 25.05136 -77.47512 23 ft 0 kts 134°
2026-05-03 23:01 25.04897 -77.47247 24 ft 109 kts 135°
2026-05-03 23:01 25.04208 -77.46472 696 ft 152 kts 131°
2026-05-03 23:01 25.03581 -77.45735 1937 ft 137 kts 128°
2026-05-03 23:01 25.03163 -77.45188 2424 ft 151 kts 133°
2026-05-03 23:02 25.02067 -77.43999 3237 ft 190 kts 133°
2026-05-03 23:02 25.01419 -77.42625 3047 ft 213 kts 96°
2026-05-03 23:02 25.01774 -77.41116 2971 ft 204 kts 56°
2026-05-03 23:02 25.02667 -77.39906 2963 ft 205 kts 44°
2026-05-03 23:03 25.03938 -77.39258 2967 ft 202 kts
2026-05-03 23:03 25.05227 -77.39758 2971 ft 202 kts 319°
2026-05-03 23:03 25.06263 -77.40836 2948 ft 204 kts 316°
2026-05-03 23:03 25.07281 -77.41893 2966 ft 199 kts 316°
2026-05-03 23:04 25.08298 -77.42939 2967 ft 199 kts 316°
2026-05-03 23:04 25.09306 -77.43984 2972 ft 206 kts 316°
2026-05-03 23:04 25.10445 -77.45167 2965 ft 243 kts 316°
2026-05-03 23:04 25.11721 -77.46498 2967 ft 259 kts 316°
2026-05-03 23:05 25.13038 -77.47871 2961 ft 261 kts 316°
2026-05-03 23:05 25.14371 -77.49265 2959 ft 263 kts 316°
2026-05-03 23:05 25.15686 -77.50654 2952 ft 257 kts 314°
2026-05-03 23:05 25.16557 -77.52234 2957 ft 238 kts 283°
2026-05-03 23:06 25.16592 -77.53986 2964 ft 221 kts 268°
2026-05-03 23:06 25.16781 -77.55610 2957 ft 206 kts 285°
2026-05-03 23:06 25.17097 -77.57143 2952 ft 201 kts 279°
2026-05-03 23:06 25.17299 -77.58640 2950 ft 199 kts 272°
2026-05-03 23:07 25.17055 -77.60143 2975 ft 199 kts 253°
2026-05-03 23:07 25.16955 -77.61652 2942 ft 197 kts 281°
2026-05-03 23:07 25.17169 -77.63127 2942 ft 200 kts 265°
2026-05-03 23:07 25.16565 -77.64467 2961 ft 200 kts 220°
2026-05-03 23:08 25.15268 -77.64996 2979 ft 203 kts 185°
2026-05-03 23:08 25.13838 -77.64943 2913 ft 207 kts 172°
2026-05-03 23:08 25.12492 -77.64381 2672 ft 208 kts 142°
2026-05-03 23:08 25.11606 -77.63149 2438 ft 207 kts 114°
2026-05-03 23:09 25.11258 -77.61629 2202 ft 206 kts 93°
2026-05-03 23:09 25.11189 -77.60069 1961 ft 206 kts 92°
2026-05-03 23:09 25.11102 -77.58497 1722 ft 206 kts 92°
2026-05-03 23:09 25.11013 -77.56943 1602 ft 200 kts 92°
2026-05-03 23:10 25.10927 -77.55444 1571 ft 193 kts 92°
2026-05-03 23:10 25.10735 -77.53983 1552 ft 195 kts 110°
2026-05-03 23:10 25.09957 -77.52848 1573 ft 174 kts 136°
2026-05-03 23:10 25.09133 -77.51979 1445 ft 157 kts 133°
2026-05-03 23:11 25.08396 -77.51148 1207 ft 147 kts 133°
2026-05-03 23:11 25.07683 -77.50352 910 ft 143 kts 132°
2026-05-03 23:11 25.06996 -77.49583 629 ft 141 kts 133°
2026-05-03 23:11 25.06323 -77.48832 364 ft 137 kts 132°
2026-05-03 23:12 25.05662 -77.48102 200 ft 134 kts 134°
2026-05-03 23:12 25.05007 -77.47373 47 ft 134 kts 133°
2026-05-03 23:12 25.04355 -77.46645 40 ft 152 kts 134°
2026-05-03 23:12 25.03859 -77.46111 666 ft 151 kts 133°
2026-05-03 23:13 25.02805 -77.44854 1626 ft 192 kts 129°
2026-05-03 23:13 25.02538 -77.44460 1734 ft 209 kts 120°
2026-05-03 23:13 25.02521 -77.44428 1745 ft 210 kts 119°
2026-05-03 23:16 25.02454 -77.44290 1806 ft 213 kts 114°
2026-05-03 23:16 25.02310 -77.43712 2213 ft 214 kts 95°